STARLINK-36863, 67949

Orbit data source: Space-Track

STARLINK-36863, 67949 is a payload satellite owned by SpaceX/Seattle (US) in LEO that was launched on Tue, 24 Feb 2026 UTC via an FALCON 9 launch vehicle from the Air Force Eastern Test Range (AFETR). Payload-class satellites include a variety of spacecraft equipped with specific instruments for various scientific and technological missions. These include communications satellites like Starlink; space stations such as the ISS; scientific satellites like the Hubble; Earth observation satellites from companies like Planet Labs, Umbra, and HawkEye 360; GPS; miniature CubeSats for education and research; and military/defense satellites.

Loading next visibility...
Identifier
67949, 2026-037T
Orbit
LEO
Country
Flag of USUS
Related business
Manufacturer
SpaceX/Seattle
Mission
Operational Commercial Communications
Bus & Motor
STARLINK V2MO, Unknown motor
Mass
575 kg wet, ~530 kg dry
Launch date (UTC)
2026-02-24 (4 months ago)
Launch vehicle
FALCON 9
Launch site
Air Force Eastern Test Range (AFETR)
Object type
Payload
Rocket body
Debris
Shape & HBR
Box + 2 Pan, 17.7 m
Radar Cross Section
36.964 m², Large (>1 m²)

Expand to show TLE details & history
Last TLE update: 10 hours ago

TLE from 10 hours ago
0 STARLINK-36863
1 67949U 26037T   26171.46426141  .00021075  00000-0  77283-3 0  9993
2 67949  43.0048 329.8796 0000791 206.5192 153.5619 15.27595924 19067
Epoch: 2026-06-20T11:08Z
TLE epoch observation values (Epoch: 2026-06-20T11:08:32.185Z)
Latitude
-0.00006°
Longitude
-105.93307°
Altitude
483.263 km
Speed
7.625 km/s
True Right ascension
21h 59m 31s
True Declination
0° 00' 00"
Sunlit
Object was in full shadow at epoch
Visualization orbit readout
Latitude
Unknown
Longitude
Unknown
Altitude
Unknown
Speed
Unknown
Apparent Right ascension
Unknown
Apparent Declination
Unknown
Sunlit
N/A
Visualization observer readout
Local Sidereal Time
08:32:49
Azimuth
Unknown
Elevation
Unknown
Doppler factor
Unknown
Orbital elements
Apogee altitude
485.489 km
Perigee altitude
484.403 km
Semi-major axis
6,863.083 km
Eccentricity
0.00008
Inclination
43.0048°
RAAN
329.8796°
Arg. of periapsis
206.5192°
True anomaly
153.56594°
Mean anomaly
153.5619°
Eccentric anomaly
153.56392°
Mean motion
3.81737 °/min
Orbital period
94.31 mins
BSTAR
0.00077283
Loading maneuver chart data...
Computing Atmospheric mass density...
Loading historical data...
Loading historical data...
Loading historical data...
Loading historical data...
Loading historical data...
Loading historical data...
Loading historical data...

Documentation

Showing up to 5 results
|